Station History

Weather Underground - logo

Station Historical Data
Daily Summary for October 14, 2017 Units:  English    Metric   Both
« Previous Day
Next Day »
Daily Weekly Monthly Yearly Custom
  High: Low: Average:
Temperature: 76.9 °F 44.0 °F 59.2 °F
Dew Point: 50.6 °F 40.0 °F 44.3 °F
Humidity: 87 % 30 % 63 %
Wind Speed: 5.0 mph 0.0 mph 0.6 mph
Wind Gust: 5.0 mph - -
Wind:- - SSW
Pressure: 30.14 in 30.03 in -
Precipitation: 0.00 in    
Historical Graphs
 
 
Tabular Data for October 14, 2017
Time Temperature Dew Point Pressure Wind Wind Speed Wind Gust Humidity Rainfall Rate (Hourly)
00:01 50.5 °F 43.9 °F 30.06 in Calm     78 % 0.00 in
00:06 50.5 °F 44.2 °F 30.06 in Calm     79 % 0.00 in
00:11 50.3 °F 44.0 °F 30.06 in Calm     79 % 0.00 in
00:16 50.0 °F 44.1 °F 30.06 in Calm     80 % 0.00 in
00:21 49.8 °F 43.5 °F 30.06 in Calm     79 % 0.00 in
00:26 49.8 °F 43.5 °F 30.07 in Calm     79 % 0.00 in
00:31 49.9 °F 44.0 °F 30.07 in Calm     80 % 0.00 in
00:36 49.5 °F 43.3 °F 30.07 in Calm     79 % 0.00 in
00:41 49.1 °F 43.2 °F 30.07 in Calm     80 % 0.00 in
00:46 48.7 °F 43.1 °F 30.07 in Calm     81 % 0.00 in
00:51 48.4 °F 42.5 °F 30.06 in SE 1.2 mph   80 % 0.00 in
00:56 48.2 °F 42.6 °F 30.06 in SE 1.2 mph   81 % 0.00 in
01:01 48.0 °F 42.4 °F 30.06 in Calm     81 % 0.00 in
01:06 48.2 °F 42.6 °F 30.06 in Calm     81 % 0.00 in
01:11 48.5 °F 42.6 °F 30.07 in Calm     80 % 0.00 in
01:16 48.7 °F 42.8 °F 30.07 in Calm     80 % 0.00 in
01:21 48.8 °F 42.9 °F 30.07 in Calm     80 % 0.00 in
01:26 49.0 °F 42.8 °F 30.07 in Calm     79 % 0.00 in
01:31 49.0 °F 43.1 °F 30.07 in Calm     80 % 0.00 in
01:36 48.8 °F 43.2 °F 30.07 in Calm     81 % 0.00 in
01:41 48.6 °F 43.7 °F 30.07 in Calm     83 % 0.00 in
01:46 48.5 °F 43.6 °F 30.07 in Calm     83 % 0.00 in
01:51 48.3 °F 43.4 °F 30.07 in Calm     83 % 0.00 in
01:56 48.0 °F 43.1 °F 30.07 in Calm     83 % 0.00 in
02:01 47.7 °F 43.1 °F 30.07 in Calm     84 % 0.00 in
02:06 47.5 °F 42.6 °F 30.07 in Calm     83 % 0.00 in
02:11 47.6 °F 43.0 °F 30.07 in Calm     84 % 0.00 in
02:16 47.5 °F 42.9 °F 30.07 in Calm     84 % 0.00 in
02:21 47.5 °F 42.9 °F 30.07 in Calm     84 % 0.00 in
02:26 47.7 °F 42.8 °F 30.07 in Calm     83 % 0.00 in
02:31 47.6 °F 42.4 °F 30.07 in Calm     82 % 0.00 in
02:36 47.6 °F 42.7 °F 30.07 in Calm     83 % 0.00 in
02:41 47.9 °F 43.0 °F 30.07 in Calm     83 % 0.00 in
02:43 47.9 °F 43.0 °F 30.07 in Calm     83 % 0.00 in
02:48 47.7 °F 42.5 °F 30.07 in Calm     82 % 0.00 in
02:53 47.4 °F 42.5 °F 30.07 in Calm     83 % 0.00 in
02:58 47.2 °F 42.6 °F 30.07 in Calm     84 % 0.00 in
03:03 46.9 °F 42.3 °F 30.07 in Calm     84 % 0.00 in
03:08 46.6 °F 42.0 °F 30.07 in Calm     84 % 0.00 in
03:13 46.4 °F 41.8 °F 30.07 in Calm     84 % 0.00 in
03:18 46.3 °F 41.7 °F 30.07 in Calm     84 % 0.00 in
03:23 46.5 °F 42.2 °F 30.07 in Calm     85 % 0.00 in
03:28 46.5 °F 42.5 °F 30.07 in Calm     86 % 0.00 in
03:33 46.5 °F 42.2 °F 30.07 in Calm     85 % 0.00 in
03:38 46.7 °F 42.4 °F 30.07 in Calm     85 % 0.00 in
03:43 46.6 °F 42.3 °F 30.07 in Calm     85 % 0.00 in
03:44 46.6 °F 42.3 °F 30.07 in Calm     85 % 0.00 in
03:49 46.5 °F 42.2 °F 30.07 in Calm     85 % 0.00 in
03:54 46.4 °F 42.4 °F 30.07 in Calm     86 % 0.00 in
03:59 46.1 °F 41.8 °F 30.07 in Calm     85 % 0.00 in
04:04 45.8 °F 41.5 °F 30.08 in Calm     85 % 0.00 in
04:09 45.6 °F 41.4 °F 30.08 in Calm     85 % 0.00 in
04:14 45.7 °F 41.4 °F 30.08 in Calm     85 % 0.00 in
04:19 46.1 °F 41.5 °F 30.08 in Calm     84 % 0.00 in
04:24 46.6 °F 41.4 °F 30.08 in Calm     82 % 0.00 in
04:29 46.8 °F 41.3 °F 30.08 in Calm     81 % 0.00 in
04:34 47.0 °F 41.5 °F 30.08 in Calm     81 % 0.00 in
04:39 46.9 °F 41.1 °F 30.08 in Calm     80 % 0.00 in
04:44 46.8 °F 41.0 °F 30.08 in Calm     80 % 0.00 in
04:49 46.7 °F 41.5 °F 30.08 in Calm     82 % 0.00 in
04:54 46.6 °F 41.4 °F 30.08 in Calm     82 % 0.00 in
04:59 46.3 °F 41.1 °F 30.08 in Calm     82 % 0.00 in
05:04 46.0 °F 41.1 °F 30.08 in Calm     83 % 0.00 in
05:09 45.8 °F 41.2 °F 30.08 in Calm     84 % 0.00 in
05:14 45.7 °F 41.4 °F 30.09 in Calm     85 % 0.00 in
05:19 45.6 °F 41.7 °F 30.09 in Calm     86 % 0.00 in
05:24 45.7 °F 42.1 °F 30.09 in Calm     87 % 0.00 in
05:29 45.8 °F 42.2 °F 30.09 in Calm     87 % 0.00 in
05:34 45.9 °F 41.9 °F 30.09 in Calm     86 % 0.00 in
05:39 45.9 °F 41.9 °F 30.09 in Calm     86 % 0.00 in
05:44 45.9 °F 41.6 °F 30.09 in Calm     85 % 0.00 in
05:49 45.8 °F 41.5 °F 30.09 in Calm     85 % 0.00 in
05:54 45.7 °F 41.4 °F 30.09 in Calm     85 % 0.00 in
05:59 46.3 °F 41.4 °F 30.09 in Calm     83 % 0.00 in
06:04 47.0 °F 41.5 °F 30.09 in Calm     81 % 0.00 in
06:09 47.1 °F 41.6 °F 30.09 in Calm     81 % 0.00 in
06:14 46.9 °F 41.4 °F 30.09 in Calm     81 % 0.00 in
06:19 46.6 °F 41.1 °F 30.09 in Calm     81 % 0.00 in
06:24 46.5 °F 41.3 °F 30.09 in Calm     82 % 0.00 in
06:29 46.4 °F 41.2 °F 30.09 in Calm     82 % 0.00 in
06:39 46.5 °F 41.3 °F 30.09 in Calm     82 % 0.00 in
06:44 46.4 °F 41.2 °F 30.10 in Calm     82 % 0.00 in
06:49 46.2 °F 41.0 °F 30.10 in Calm     82 % 0.00 in
06:55 46.1 °F 40.9 °F 30.09 in Calm     82 % 0.00 in
07:00 45.6 °F 40.1 °F 30.10 in Calm     81 % 0.00 in
07:05 44.9 °F 40.0 °F 30.10 in Calm     83 % 0.00 in
07:10 44.5 °F 40.6 °F 30.10 in Calm     86 % 0.00 in
07:15 44.5 °F 40.6 °F 30.10 in Calm     86 % 0.00 in
07:20 44.4 °F 40.5 °F 30.10 in Calm     86 % 0.00 in
07:25 44.1 °F 40.2 °F 30.10 in Calm     86 % 0.00 in
07:30 44.0 °F 40.1 °F 30.10 in Calm     86 % 0.00 in
07:35 44.0 °F 40.1 °F 30.10 in Calm     86 % 0.00 in
07:40 44.2 °F 40.6 °F 30.10 in Calm     87 % 0.00 in
07:45 44.4 °F 40.8 °F 30.11 in Calm     87 % 0.00 in
07:50 44.9 °F 41.3 °F 30.11 in Calm     87 % 0.00 in
07:55 45.5 °F 41.3 °F 30.11 in Calm     85 % 0.00 in
08:00 46.1 °F 41.5 °F 30.11 in Calm     84 % 0.00 in
08:05 46.5 °F 41.9 °F 30.12 in Calm     84 % 0.00 in
08:10 47.1 °F 42.5 °F 30.12 in Calm     84 % 0.00 in
08:15 47.9 °F 42.7 °F 30.12 in Calm     82 % 0.00 in
08:20 48.9 °F 43.6 °F 30.12 in Calm     82 % 0.00 in
08:25 49.8 °F 44.5 °F 30.12 in SW 1.2 mph 1.2 mph 82 % 0.00 in
08:30 50.6 °F 44.7 °F 30.12 in Calm     80 % 0.00 in
08:35 51.4 °F 45.1 °F 30.13 in West 1.2 mph 1.2 mph 79 % 0.00 in
08:40 52.2 °F 45.2 °F 30.13 in Calm     77 % 0.00 in
08:45 53.0 °F 45.3 °F 30.13 in Calm     75 % 0.00 in
08:50 53.5 °F 44.0 °F 30.13 in West 2.3 mph 2.3 mph 70 % 0.00 in
08:55 54.1 °F 44.2 °F 30.13 in Calm   0.1 mph 69 % 0.00 in
09:00 54.8 °F 43.7 °F 30.14 in West 1.2 mph   66 % 0.00 in
09:05 55.4 °F 43.0 °F 30.14 in West 1.2 mph 1.2 mph 63 % 0.00 in
09:10 56.1 °F 43.3 °F 30.14 in NW 1.2 mph   62 % 0.00 in
09:15 56.8 °F 43.5 °F 30.14 in Calm     61 % 0.00 in
09:20 57.6 °F 44.2 °F 30.14 in Calm     61 % 0.00 in
09:25 58.7 °F 44.0 °F 30.14 in SE 1.2 mph 1.2 mph 58 % 0.00 in
09:30 59.5 °F 45.2 °F 30.14 in SE 2.3 mph 2.3 mph 59 % 0.00 in
09:35 60.2 °F 44.4 °F 30.14 in East 2.0 mph 2.0 mph 56 % 0.00 in
09:40 60.8 °F 44.5 °F 30.14 in East 2.3 mph 2.3 mph 55 % 0.00 in
09:45 61.1 °F 43.3 °F 30.14 in East 3.5 mph 3.5 mph 52 % 0.00 in
09:50 61.4 °F 44.1 °F 30.14 in East 1.2 mph   53 % 0.00 in
09:55 62.1 °F 43.7 °F 30.14 in East 1.2 mph   51 % 0.00 in
10:00 62.8 °F 43.3 °F 30.14 in SE 1.2 mph 1.2 mph 49 % 0.00 in
10:05 63.3 °F 44.3 °F 30.14 in ENE 1.2 mph 1.2 mph 50 % 0.00 in
10:10 63.8 °F 42.6 °F 30.14 in ENE 1.2 mph 1.2 mph 46 % 0.00 in
10:15 64.3 °F 43.6 °F 30.14 in NE 1.2 mph 1.4 mph 47 % 0.00 in
10:20 64.6 °F 43.9 °F 30.14 in ESE 3.5 mph 3.5 mph 47 % 0.00 in
10:25 65.3 °F 43.4 °F 30.13 in East 4.6 mph 4.6 mph 45 % 0.00 in
10:30 65.5 °F 43.0 °F 30.13 in ENE 3.5 mph 3.5 mph 44 % 0.00 in
10:35 65.8 °F 43.3 °F 30.13 in ENE 3.5 mph 3.5 mph 44 % 0.00 in
10:40 66.2 °F 43.0 °F 30.13 in East 3.0 mph 3.0 mph 43 % 0.00 in
10:45 66.6 °F 42.8 °F 30.13 in NE 5.0 mph 5.0 mph 42 % 0.00 in
10:50 67.0 °F 43.8 °F 30.12 in ENE 3.5 mph 3.5 mph 43 % 0.00 in
10:56 67.6 °F 44.9 °F 30.12 in East 1.2 mph 1.2 mph 44 % 0.00 in
11:01 68.3 °F 43.7 °F 30.12 in SE 2.3 mph 2.3 mph 41 % 0.00 in
11:06 68.9 °F 43.6 °F 30.12 in South 3.5 mph 3.5 mph 40 % 0.00 in
11:11 69.4 °F 42.0 °F 30.12 in South 3.5 mph 3.5 mph 37 % 0.00 in
11:16 69.7 °F 44.3 °F 30.12 in SSE 4.0 mph 4.0 mph 40 % 0.00 in
11:21 70.2 °F 43.4 °F 30.12 in East 1.2 mph 1.2 mph 38 % 0.00 in
11:26 70.4 °F 43.6 °F 30.11 in East 1.2 mph 1.2 mph 38 % 0.00 in
11:31 70.9 °F 43.3 °F 30.11 in SSE 1.2 mph 1.2 mph 37 % 0.00 in
11:36 71.0 °F 43.4 °F 30.11 in NNW 3.5 mph 3.5 mph 37 % 0.00 in
11:41 71.4 °F 43.8 °F 30.11 in East 1.2 mph 1.2 mph 37 % 0.00 in
11:46 71.9 °F 43.5 °F 30.11 in East 1.2 mph   36 % 0.00 in
11:51 71.9 °F 43.5 °F 30.11 in SSW 3.5 mph 3.5 mph 36 % 0.00 in
11:56 71.8 °F 41.9 °F 30.10 in NW 3.5 mph 3.5 mph 34 % 0.00 in
12:01 71.9 °F 43.5 °F 30.10 in South 3.5 mph 3.5 mph 36 % 0.00 in
12:06 72.6 °F 43.4 °F 30.10 in South 2.3 mph 2.3 mph 35 % 0.00 in
12:11 73.2 °F 44.6 °F 30.10 in SE 1.2 mph 1.2 mph 36 % 0.00 in
12:16 73.9 °F 43.8 °F 30.10 in South 1.2 mph 1.2 mph 34 % 0.00 in
12:21 73.3 °F 44.0 °F 30.10 in East 1.2 mph 1.2 mph 35 % 0.00 in
12:26 73.2 °F 43.9 °F 30.10 in ENE 1.2 mph 1.2 mph 35 % 0.00 in
12:31 73.7 °F 42.8 °F 30.10 in WNW 1.2 mph 1.2 mph 33 % 0.00 in
12:36 73.6 °F 41.9 °F 30.10 in West 1.2 mph 1.2 mph 32 % 0.00 in
12:41 73.9 °F 43.0 °F 30.10 in NNW 2.0 mph 2.0 mph 33 % 0.00 in
12:46 74.1 °F 42.3 °F 30.09 in WNW 1.2 mph 1.2 mph 32 % 0.00 in
12:51 74.2 °F 44.0 °F 30.09 in West 1.2 mph 1.2 mph 34 % 0.00 in
12:56 74.7 °F 42.9 °F 30.09 in NNW 1.2 mph 1.2 mph 32 % 0.00 in
13:01 75.2 °F 44.1 °F 30.09 in SSE 2.3 mph 2.3 mph 33 % 0.00 in
13:06 75.3 °F 45.0 °F 30.09 in ENE 1.2 mph 1.2 mph 34 % 0.00 in
13:11 75.6 °F 45.2 °F 30.08 in WSW 1.2 mph 1.2 mph 34 % 0.00 in
13:16 75.9 °F 43.9 °F 30.08 in SE 1.2 mph 1.2 mph 32 % 0.00 in
13:21 76.2 °F 46.5 °F 30.08 in ESE 1.2 mph 1.2 mph 35 % 0.00 in
13:26 76.6 °F 43.7 °F 30.08 in SE 1.2 mph 1.2 mph 31 % 0.00 in
13:31 76.3 °F 44.3 °F 30.08 in SE 1.2 mph 1.2 mph 32 % 0.00 in
13:36 76.3 °F 42.6 °F 30.07 in WNW 1.2 mph 1.2 mph 30 % 0.00 in
13:41 76.3 °F 45.1 °F 30.07 in West 1.2 mph 1.2 mph 33 % 0.00 in
13:46 76.2 °F 45.0 °F 30.07 in South 1.2 mph 1.2 mph 33 % 0.00 in
13:51 76.2 °F 44.2 °F 30.07 in WNW 3.5 mph 3.5 mph 32 % 0.00 in
13:56 75.6 °F 42.8 °F 30.06 in West 2.3 mph 2.3 mph 31 % 0.00 in
14:01 75.4 °F 43.5 °F 30.06 in NNW 1.0 mph 1.0 mph 32 % 0.00 in
14:03 75.4 °F 42.7 °F 30.06 in North 2.3 mph 2.3 mph 31 % 0.00 in
14:08 75.1 °F 42.4 °F 30.06 in NW 2.3 mph 2.3 mph 31 % 0.00 in
14:13 75.5 °F 45.2 °F 30.06 in SE 1.2 mph   34 % 0.00 in
14:18 76.3 °F 45.9 °F 30.06 in SSW 2.0 mph 2.0 mph 34 % 0.00 in
14:23 76.9 °F 44.0 °F 30.05 in SSE 2.0 mph 2.0 mph 31 % 0.00 in
14:28 76.7 °F 43.8 °F 30.05 in SE 3.5 mph 3.5 mph 31 % 0.00 in
14:33 76.7 °F 42.9 °F 30.05 in NNW 1.2 mph 1.2 mph 30 % 0.00 in
14:38 76.3 °F 43.4 °F 30.05 in NW 2.3 mph 2.3 mph 31 % 0.00 in
14:43 76.0 °F 44.0 °F 30.05 in NW 2.3 mph 2.3 mph 32 % 0.00 in
14:48 75.8 °F 43.0 °F 30.05 in NNW 2.3 mph   31 % 0.00 in
14:53 76.0 °F 43.2 °F 30.05 in WNW 1.2 mph 1.2 mph 31 % 0.00 in
14:58 76.3 °F 42.6 °F 30.05 in NW 1.2 mph 1.2 mph 30 % 0.00 in
15:03 76.5 °F 44.4 °F 30.04 in WNW 1.0 mph   32 % 0.00 in
15:08 76.8 °F 43.9 °F 30.04 in WNW 1.2 mph 1.2 mph 31 % 0.00 in
15:14 76.6 °F 44.5 °F 30.04 in WNW 1.2 mph   32 % 0.00 in
15:19 76.6 °F 43.7 °F 30.04 in NW 2.3 mph 2.3 mph 31 % 0.00 in
15:24 76.4 °F 43.5 °F 30.04 in WSW 2.3 mph 2.3 mph 31 % 0.00 in
15:29 76.3 °F 42.6 °F 30.04 in NW 1.2 mph 1.2 mph 30 % 0.00 in
15:34 76.4 °F 44.4 °F 30.04 in Calm     32 % 0.00 in
15:39 76.6 °F 42.8 °F 30.04 in NW 3.5 mph 3.5 mph 30 % 0.00 in
15:44 76.4 °F 43.5 °F 30.03 in NNW 1.2 mph 1.2 mph 31 % 0.00 in
15:49 76.4 °F 43.5 °F 30.03 in NW 3.5 mph 3.5 mph 31 % 0.00 in
15:54 76.3 °F 44.3 °F 30.03 in North 2.3 mph 2.3 mph 32 % 0.00 in
15:59 76.4 °F 42.7 °F 30.03 in NW 1.2 mph 1.2 mph 30 % 0.00 in
16:04 76.3 °F 42.6 °F 30.03 in Calm     30 % 0.00 in
16:09 76.1 °F 42.4 °F 30.03 in WNW 1.2 mph 1.2 mph 30 % 0.00 in
16:14 76.1 °F 43.3 °F 30.03 in NNW 2.3 mph 2.3 mph 31 % 0.00 in
16:19 75.8 °F 42.1 °F 30.03 in SW 1.2 mph   30 % 0.00 in
16:24 75.7 °F 42.9 °F 30.03 in WNW 3.5 mph 3.5 mph 31 % 0.00 in
16:29 75.6 °F 42.8 °F 30.03 in WNW 1.2 mph   31 % 0.00 in
16:34 75.6 °F 43.7 °F 30.03 in Calm     32 % 0.00 in
16:39 75.5 °F 43.6 °F 30.03 in NW 2.0 mph 2.0 mph 32 % 0.00 in
16:44 75.4 °F 44.3 °F 30.03 in WNW 1.2 mph 1.2 mph 33 % 0.00 in
16:49 75.3 °F 44.2 °F 30.03 in Calm     33 % 0.00 in
16:54 75.1 °F 44.0 °F 30.03 in NW 1.2 mph   33 % 0.00 in
16:59 75.0 °F 45.5 °F 30.03 in NW 1.2 mph 1.2 mph 35 % 0.00 in
17:04 74.8 °F 44.5 °F 30.03 in Calm     34 % 0.00 in
17:09 74.7 °F 45.2 °F 30.03 in Calm     35 % 0.00 in
17:14 74.5 °F 45.0 °F 30.03 in Calm     35 % 0.00 in
17:19 74.3 °F 44.9 °F 30.03 in Calm     35 % 0.00 in
17:24 74.0 °F 45.3 °F 30.03 in Calm     36 % 0.00 in
17:29 73.8 °F 45.2 °F 30.03 in Calm     36 % 0.00 in
17:34 73.4 °F 45.5 °F 30.03 in Calm     37 % 0.00 in
17:39 73.1 °F 46.0 °F 30.03 in Calm     38 % 0.00 in
17:44 72.7 °F 46.3 °F 30.03 in Calm     39 % 0.00 in
17:49 72.2 °F 47.2 °F 30.03 in Calm     41 % 0.00 in
17:54 71.5 °F 47.8 °F 30.03 in Calm     43 % 0.00 in
17:59 70.8 °F 46.6 °F 30.03 in Calm     42 % 0.00 in
18:04 70.2 °F 47.3 °F 30.03 in Calm     44 % 0.00 in
18:09 69.6 °F 47.9 °F 30.03 in Calm     46 % 0.00 in
18:14 68.9 °F 48.9 °F 30.03 in Calm     49 % 0.00 in
18:19 68.1 °F 48.8 °F 30.03 in Calm     50 % 0.00 in
18:24 67.3 °F 48.0 °F 30.04 in Calm     50 % 0.00 in
18:29 66.7 °F 49.0 °F 30.03 in Calm     53 % 0.00 in
18:34 66.0 °F 47.9 °F 30.04 in Calm     52 % 0.00 in
18:39 65.4 °F 48.8 °F 30.04 in Calm     55 % 0.00 in
18:42 65.1 °F 49.0 °F 30.04 in Calm     56 % 0.00 in
18:47 64.5 °F 50.3 °F 30.03 in Calm     60 % 0.00 in
18:52 63.9 °F 50.6 °F 30.03 in Calm     62 % 0.00 in
18:57 63.3 °F 50.5 °F 30.04 in Calm     63 % 0.00 in
19:02 62.7 °F 49.9 °F 30.04 in Calm     63 % 0.00 in
19:07 62.3 °F 50.4 °F 30.04 in Calm     65 % 0.00 in
19:12 62.0 °F 50.1 °F 30.04 in Calm     65 % 0.00 in
19:17 61.6 °F 49.7 °F 30.04 in Calm     65 % 0.00 in
19:22 61.3 °F 49.4 °F 30.04 in Calm     65 % 0.00 in
19:27 61.1 °F 49.7 °F 30.05 in Calm     66 % 0.00 in
19:32 60.9 °F 49.9 °F 30.05 in Calm     67 % 0.00 in
19:37 60.6 °F 50.0 °F 30.05 in Calm     68 % 0.00 in
19:42 60.3 °F 50.1 °F 30.05 in Calm     69 % 0.00 in
19:47 60.3 °F 50.5 °F 30.05 in Calm     70 % 0.00 in
19:52 60.0 °F 49.4 °F 30.05 in Calm     68 % 0.00 in
19:57 59.9 °F 49.3 °F 30.05 in Calm     68 % 0.00 in
20:02 59.7 °F 49.1 °F 30.05 in Calm     68 % 0.00 in
20:07 59.3 °F 48.7 °F 30.06 in Calm     68 % 0.00 in
20:12 59.1 °F 48.9 °F 30.06 in Calm     69 % 0.00 in
20:17 58.9 °F 48.4 °F 30.06 in Calm     68 % 0.00 in
20:22 58.7 °F 48.9 °F 30.06 in Calm     70 % 0.00 in
20:27 58.4 °F 48.7 °F 30.06 in Calm     70 % 0.00 in
20:32 58.2 °F 48.5 °F 30.07 in Calm     70 % 0.00 in
20:37 57.9 °F 48.6 °F 30.07 in Calm     71 % 0.00 in
20:42 57.7 °F 48.7 °F 30.07 in Calm     72 % 0.00 in
20:47 57.7 °F 48.7 °F 30.08 in Calm     72 % 0.00 in
20:52 57.6 °F 49.0 °F 30.08 in Calm     73 % 0.00 in
20:57 57.5 °F 48.5 °F 30.08 in Calm     72 % 0.00 in
21:02 57.3 °F 48.7 °F 30.08 in Calm     73 % 0.00 in
21:07 57.1 °F 48.9 °F 30.08 in Calm     74 % 0.00 in
21:12 56.8 °F 48.6 °F 30.09 in Calm     74 % 0.00 in
21:17 56.7 °F 48.5 °F 30.09 in Calm     74 % 0.00 in
21:23 56.2 °F 48.0 °F 30.09 in Calm     74 % 0.00 in
21:28 55.7 °F 47.5 °F 30.09 in Calm     74 % 0.00 in
21:33 55.3 °F 47.2 °F 30.09 in Calm     74 % 0.00 in
21:38 55.1 °F 47.7 °F 30.10 in WNW 1.2 mph   76 % 0.00 in
21:43 55.1 °F 47.7 °F 30.09 in Calm     76 % 0.00 in
21:48 55.0 °F 47.6 °F 30.10 in Calm     76 % 0.00 in
21:53 54.9 °F 47.5 °F 30.10 in Calm     76 % 0.00 in
21:58 54.8 °F 47.4 °F 30.10 in Calm     76 % 0.00 in
22:03 54.6 °F 47.5 °F 30.10 in Calm     77 % 0.00 in
22:08 54.5 °F 47.4 °F 30.10 in Calm     77 % 0.00 in
22:13 54.5 °F 47.8 °F 30.11 in Calm     78 % 0.00 in
22:18 54.6 °F 48.2 °F 30.10 in Calm     79 % 0.00 in
22:23 54.6 °F 47.9 °F 30.11 in Calm     78 % 0.00 in
22:28 54.7 °F 47.6 °F 30.10 in Calm     77 % 0.00 in
22:33 54.6 °F 47.5 °F 30.11 in Calm     77 % 0.00 in
22:38 54.5 °F 48.1 °F 30.10 in Calm     79 % 0.00 in
22:43 54.4 °F 48.0 °F 30.11 in Calm     79 % 0.00 in
22:48 54.2 °F 47.5 °F 30.11 in WNW 1.0 mph   78 % 0.00 in
22:53 53.5 °F 46.8 °F 30.11 in Calm     78 % 0.00 in
22:58 52.7 °F 45.7 °F 30.11 in Calm     77 % 0.00 in
23:03 52.2 °F 45.5 °F 30.11 in Calm     78 % 0.00 in
23:08 52.0 °F 45.7 °F 30.11 in Calm     79 % 0.00 in
23:13 51.8 °F 45.8 °F 30.11 in Calm     80 % 0.00 in
23:18 51.6 °F 46.0 °F 30.11 in Calm     81 % 0.00 in
23:23 51.7 °F 46.1 °F 30.11 in Calm     81 % 0.00 in
23:28 51.8 °F 46.2 °F 30.11 in Calm     81 % 0.00 in
23:33 51.7 °F 46.1 °F 30.11 in Calm     81 % 0.00 in
23:38 51.8 °F 45.8 °F 30.11 in Calm     80 % 0.00 in
23:43 52.0 °F 46.3 °F 30.11 in Calm     81 % 0.00 in
23:48 51.9 °F 46.3 °F 30.11 in Calm     81 % 0.00 in
23:53 51.8 °F 46.2 °F 30.11 in Calm     81 % 0.00 in
23:58 51.7 °F 46.1 °F 30.11 in Calm     81 % 0.00 in
Park Place, Exeter, Tulare County, California, USA
Compliments of Weather Underground - 2.75 mb